EW7003 Weather Reports


Display with metric or nautical units.
time (UTC)temp
F
wind
direction
speed
MPH
gust
MPH
rain 1hr
in
rain 24hr
in
rain mn
in
humidity
%
barometer
mb
20190324100700 32 274 7.0 9.0 0.00 0.02 0.00 92 1014.6
20190324100209 32 275 7.0 9.0 0.00 0.02 0.00 92 1014.6
20190324095718 32 277 8.0 9.0 0.00 0.02 0.00 91 1014.6
20190324095207 32 280 8.0 9.0 0.00 0.02 0.00 91 1014.5
20190324094715 32 279 8.0 10.0 0.00 0.02 0.00 91 1014.4
20190324094205 32 279 8.0 10.0 0.00 0.02 0.00 91 1014.4
20190324093718 32 281 8.0 9.0 0.00 0.02 0.00 92 1014.4
20190324093208 32 284 8.0 10.0 0.00 0.02 0.00 92 1014.4
20190324092716 32 288 8.0 10.0 0.00 0.02 0.00 91 1014.4
20190324092203 32 284 8.0 10.0 0.00 0.02 0.00 91 1014.4
20190324091712 32 277 8.0 9.0 0.00 0.02 0.00 91 1014.5
20190324091202 32 275 8.0 9.0 0.00 0.02 0.00 91 1014.5
20190324090710 32 276 7.0 8.0 0.00 0.02 0.00 91 1014.5
20190324090200 32 277 6.0 8.0 0.00 0.02 0.00 91 1014.5
20190324085709 32 274 7.0 9.0 0.00 0.03 0.00 91 1014.5
20190324085203 32 268 7.0 9.0 0.00 0.03 0.00 91 1014.6
20190324084712 32 271 8.0 9.0 0.00 0.03 0.00 90 1014.6
20190324084201 32 277 7.0 8.0 0.00 0.03 0.00 90 1014.5
20190324083711 32 280 6.0 8.0 0.00 0.03 0.00 90 1014.5
20190324083220 33 274 6.0 8.0 0.00 0.03 0.00 90 1014.5
20190324082708 33 282 6.0 8.0 0.00 0.03 0.00 90 1014.4
20190324082215 33 271 6.0 7.0 0.00 0.03 0.00 90 1014.4
20190324081705 33 276 6.0 8.0 0.00 0.03 0.00 90 1014.4
20190324081214 34 277 7.0 8.0 0.00 0.03 0.00 90 1014.3
20190324080707 34 294 6.0 8.0 0.00 0.03 0.00 90 1014.3
20190324080216 34 290 5.0 7.0 0.00 0.03 0.00 90 1014.4
20190324075704 34 288 5.0 7.0 0.00 0.13 0.00 89 1014.4
20190324075213 34 280 6.0 8.0 0.00 0.13 0.00 89 1014.5
20190324074702 35 277 7.0 8.0 0.00 0.13 0.00 89 1014.6
20190324074211 35 284 6.0 8.0 0.00 0.13 0.00 88 1014.6
20190324073719 35 273 7.0 8.0 0.00 0.13 0.00 89 1014.6
20190324073209 36 275 7.0 8.0 0.00 0.13 0.00 88 1014.6
20190324072702 36 282 7.0 9.0 0.00 0.13 0.00 88 1014.5
20190324072207 37 270 7.0 10.0 0.00 0.13 0.00 87 1014.5
20190324071716 37 265 8.0 10.0 0.00 0.13 0.00 87 1014.5
20190324071206 38 283 8.0 11.0 0.00 0.13 0.00 88 1014.5
20190324070714 38 296 9.0 11.0 0.00 0.13 0.00 88 1014.2
20190324070204 38 319 7.0 15.0 0.00 0.13 0.00 88 1014.1
20190324065713 38 299 11.0 15.0 0.00 0.30 0.13 88 1014.1
20190324065201 38 259 9.0 12.0 0.00 0.30 0.13 87 1014.2
20190324064709 38 342 4.0 6.0 0.00 0.30 0.13 87 1014.0
20190324064201 39 355 4.0 9.0 0.00 0.30 0.13 87 1013.9
20190324063710 39 348 5.0 9.0 0.00 0.30 0.13 88 1014.0
20190324063220 39 333 6.0 9.0 0.00 0.30 0.13 88 1014.1
20190324062708 39 333 5.0 8.0 0.00 0.30 0.13 88 1014.2
20190324062214 39 331 5.0 8.0 0.00 0.30 0.13 88 1014.2
20190324061703 39 355 5.0 8.0 0.00 0.30 0.13 88 1014.1
20190324061213 39 355 5.0 10.0 0.00 0.30 0.13 88 1014.1
20190324060702 39 349 7.0 11.0 0.00 0.30 0.13 88 1014.1
20190324060211 39 329 8.0 11.0 0.00 0.30 0.13 88 1014.1
20190324055703 39 337 8.0 12.0 0.00 0.37 0.13 88 1014.1
20190324055213 39 330 8.0 12.0 0.00 0.37 0.13 88 1014.1
20190324054702 40 342 8.0 11.0 0.00 0.37 0.13 87 1014.1
20190324054211 40 328 8.0 12.0 0.00 0.37 0.13 87 1014.1
20190324053701 40 344 7.0 11.0 0.00 0.37 0.13 87 1014.1
20190324053209 40 346 8.0 13.0 0.00 0.37 0.13 87 1014.1
20190324052717 40 329 9.0 15.0 0.00 0.37 0.13 87 1014.2
20190324052202 40 336 9.0 12.0 0.00 0.37 0.13 88 1014.2
20190324051712 39 333 10.0 15.0 0.00 0.37 0.13 89 1014.1
20190324051207 39 343 12.0 15.0 0.00 0.37 0.13 89 1014.2
20190324050714 38 317 10.0 13.0 0.00 0.37 0.13 89 1014.2
20190324050202 38 315 9.0 11.0 0.00 0.37 0.13 90 1014.3
20190324045711 39 304 9.0 10.0 0.00 0.41 0.13 90 1014.3
20190324045220 39 302 9.0 10.0 0.00 0.41 0.13 90 1014.4
20190324044708 38 315 7.0 9.0 0.00 0.41 0.13 90 1014.3
20190324044217 38 312 7.0 10.0 0.00 0.41 0.13 90 1014.3
20190324043706 38 311 8.0 10.0 0.00 0.41 0.13 90 1014.4
20190324043216 38 305 7.0 10.0 0.00 0.41 0.13 90 1014.5
20190324042727 38 303 7.0 11.0 0.00 0.41 0.13 90 1014.6
20190324042214 38 304 8.0 11.0 0.00 0.41 0.13 90 1014.6
20190324041702 38 315 7.0 11.0 0.00 0.41 0.13 90 1014.4
20190324041212 38 318 9.0 12.0 0.00 0.41 0.13 90 1014.5
20190324040701 38 309 10.0 12.0 0.00 0.41 0.13 91 1014.6
20190324040211 38 321 10.0 13.0 0.00 0.41 0.13 91 1014.6
20190324035701 38 323 9.0 12.0 0.00 0.41 0.13 91 1014.4
20190324035210 38 320 8.0 10.0 0.00 0.41 0.13 91 1014.4
20190324034700 38 306 6.0 9.0 0.00 0.41 0.13 91 1014.4
20190324034213 38 316 6.0 10.0 0.00 0.41 0.13 91 1014.4
20190324033703 38 313 8.0 10.0 0.00 0.41 0.13 91 1014.3
20190324033212 37 317 6.0 9.0 0.00 0.41 0.13 91 1014.3
20190324032700 37 299 7.0 9.0 0.00 0.41 0.13 91 1014.3
20190324032205 37 300 8.0 10.0 0.00 0.41 0.13 91 1014.3
20190324031713 37 296 9.0 11.0 0.00 0.41 0.13 90 1014.2
20190324031203 38 296 9.0 11.0 0.00 0.41 0.13 91 1014.2
20190324030711 38 300 9.0 13.0 0.00 0.41 0.13 91 1014.1
20190324030220 38 302 10.0 13.0 0.00 0.41 0.13 91 1014.1
20190324025712 38 297 10.0 12.0 0.00 0.41 0.13 90 1014.1
20190324025201 38 292 9.0 11.0 0.00 0.41 0.13 90 1014.1
20190324024710 38 295 10.0 11.0 0.00 0.41 0.13 90 1014.1
20190324024218 38 296 9.0 11.0 0.00 0.41 0.13 90 1014.0
20190324023708 38 281 8.0 11.0 0.00 0.41 0.13 90 1013.8
20190324023217 38 294 9.0 11.0 0.00 0.41 0.13 90 1013.9
20190324022706 38 281 7.0 9.0 0.00 0.41 0.13 90 1013.7
20190324022212 38 286 6.0 9.0 0.00 0.41 0.13 90 1013.7
20190324021700 38 292 6.0 10.0 0.00 0.41 0.13 89 1013.6
20190324021213 37 302 8.0 10.0 0.00 0.41 0.13 89 1013.5
20190324020702 38 298 8.0 10.0 0.00 0.41 0.13 88 1013.4
20190324020211 38 305 8.0 11.0 0.00 0.41 0.13 88 1013.3
20190324015720 38 311 8.0 12.0 0.00 0.41 0.13 88 1013.1
20190324015208 38 306 9.0 12.0 0.00 0.41 0.13 88 1013.1
20190324014717 38 307 9.0 14.0 0.00 0.41 0.13 88 1013.2
20190324014205 39 306 11.0 16.0 0.00 0.41 0.13 88 1013.1
20190324013714 39 304 12.0 16.0 0.00 0.41 0.13 88 1013.0
20190324013204 39 310 13.0 15.0 0.00 0.41 0.13 88 1012.9
20190324012717 39 309 13.0 15.0 0.00 0.41 0.13 88 1012.8
20190324012202 39 305 12.0 14.0 0.00 0.41 0.13 87 1012.7
20190324011711 39 311 10.0 16.0 0.00 0.41 0.13 87 1012.6
20190324011201 39 315 13.0 16.0 0.00 0.41 0.13 87 1012.6
20190324010710 39 319 12.0 16.0 0.00 0.41 0.13 87 1012.5
20190324010219 40 313 13.0 16.0 0.00 0.41 0.13 86 1012.5
20190324005708 40 319 12.0 17.0 0.00 0.41 0.13 86 1012.4
20190324005218 40 322 14.0 17.0 0.00 0.41 0.13 85 1012.4
20190324004707 40 325 15.0 17.0 0.00 0.41 0.13 85 1012.4
20190324004219 40 321 15.0 17.0 0.00 0.41 0.13 85 1012.5
20190324003708 40 331 13.0 17.0 0.00 0.41 0.13 86 1012.4
20190324003216 40 327 13.0 17.0 0.00 0.41 0.13 85 1012.4
20190324002705 40 329 15.0 17.0 0.00 0.41 0.13 85 1012.4
20190324002211 41 323 14.0 17.0 0.00 0.41 0.13 85 1012.4
20190324001718 41 320 14.0 17.0 0.00 0.41 0.13 85 1012.3
20190324001207 41 321 13.0 16.0 0.00 0.41 0.13 84 1012.3
20190324000717 41 343 11.0 16.0 0.00 0.41 0.13 83 1012.3
20190324000206 41 342 12.0 16.0 0.00 0.41 0.13 82 1012.1
20190323235719 41 329 12.0 17.0 0.00 0.41 0.13 82 1012.1
20190323235207 41 349 13.0 17.0 0.00 0.41 0.13 81 1012.0
20190323234716 41 327 16.0 17.0 0.00 0.41 0.13 81 1011.8
20190323234205 42 342 16.0 17.0 0.00 0.41 0.13 81 1011.7
20190323233715 42 319 15.0 17.0 0.00 0.41 0.13 83 1011.6
20190323233203 42 329 16.0 17.0 0.00 0.41 0.13 82 1011.5
20190323232712 42 321 14.0 17.0 0.00 0.41 0.13 83 1011.3
20190323232219 42 340 15.0 17.0 0.00 0.41 0.13 81 1011.2
20190323231708 42 331 14.0 17.0 0.00 0.41 0.13 83 1011.2
20190323231201 42 321 15.0 17.0 0.00 0.41 0.13 83 1011.1
20190323230710 41 329 15.0 17.0 0.00 0.41 0.13 84 1011.1
20190323230219 41 345 16.0 17.0 0.00 0.41 0.13 84 1011.0
20190323225708 41 339 16.0 17.0 0.00 0.41 0.13 84 1011.0
20190323225216 41 342 15.0 17.0 0.00 0.41 0.13 85 1011.0
20190323224706 41 324 16.0 17.0 0.00 0.41 0.13 85 1011.0
20190323224214 41 320 16.0 17.0 0.00 0.41 0.13 85 1011.0
20190323223702 41 316 17.0 17.0 0.00 0.41 0.13 85 1011.0
20190323223212 42 307 15.0 22.0 0.00 0.41 0.13 85 1011.0
20190323222705 42 329 17.0 22.0 0.00 0.41 0.13 84 1011.0
20190323222211 42 326 15.0 19.0 0.00 0.41 0.13 84 1011.0
20190323221719 42 337 16.0 19.0 0.00 0.41 0.13 82 1011.0
20190323221209 42 323 16.0 17.0 0.00 0.41 0.13 83 1010.9
20190323220718 42 342 16.0 21.0 0.00 0.41 0.13 84 1010.8
20190323220208 42 331 17.0 21.0 0.00 0.41 0.13 84 1010.8
20190323215717 41 319 17.0 21.0 0.00 0.41 0.13 84 1010.8
20190323215206 41 325 17.0 21.0 0.00 0.41 0.13 84 1010.8
20190323214715 41 324 17.0 20.0 0.00 0.41 0.13 84 1010.9
20190323214208 41 321 17.0 18.0 0.00 0.41 0.13 85 1010.8
20190323213716 41 331 16.0 18.0 0.00 0.41 0.13 85 1010.8
20190323213206 41 333 16.0 17.0 0.00 0.41 0.13 86 1010.8
20190323212715 41 332 17.0 21.0 0.00 0.41 0.13 86 1010.8
20190323212202 41 327 17.0 21.0 0.00 0.41 0.13 86 1010.7
20190323211711 41 314 17.0 21.0 0.00 0.41 0.13 86 1010.6
20190323211200 41 317 17.0 17.0 0.00 0.41 0.13 86 1010.6
20190323210709 41 329 17.0 17.0 0.00 0.41 0.13 86 1010.6
20190323210203 41 306 16.0 22.0 0.00 0.41 0.13 88 1010.6
20190323205712 41 315 18.0 22.0 0.00 0.41 0.13 88 1010.5
20190323205201 40 302 17.0 21.0 0.00 0.41 0.13 88 1010.5
20190323204711 40 329 17.0 22.0 0.00 0.41 0.13 88 1010.5
20190323204219 40 321 17.0 21.0 0.00 0.41 0.13 88 1010.5
20190323203708 40 316 17.0 21.0 0.00 0.41 0.13 87 1010.5
20190323203217 40 314 17.0 21.0 0.00 0.41 0.13 87 1010.5
20190323202706 40 316 17.0 21.0 0.00 0.41 0.13 87 1010.4
20190323202211 40 305 17.0 22.0 0.00 0.41 0.13 88 1010.5
20190323201703 40 312 18.0 22.0 0.00 0.41 0.13 88 1010.4
20190323201212 40 313 17.0 22.0 0.00 0.41 0.13 89 1010.3
20190323200702 39 310 17.0 22.0 0.00 0.41 0.13 89 1010.3
20190323200210 39 319 17.0 22.0 0.00 0.41 0.13 90 1010.4
20190323195719 39 305 18.0 22.0 0.00 0.41 0.13 90 1010.4
20190323195208 38 309 18.0 22.0 0.00 0.41 0.13 90 1010.4
20190323194717 38 311 18.0 22.0 0.00 0.41 0.13 90 1010.5
20190323194206 38 313 19.0 22.0 0.00 0.41 0.13 90 1010.5
20190323193715 38 300 19.0 22.0 0.00 0.41 0.13 89 1010.5
20190323193207 38 303 20.0 22.0 0.00 0.41 0.13 89 1010.4
20190323192714 38 294 19.0 23.0 0.00 0.41 0.13 90 1010.3
20190323192201 38 306 20.0 23.0 0.00 0.41 0.13 89 1010.3
20190323191709 38 319 20.0 23.0 0.00 0.41 0.13 89 1010.3
20190323191218 38 315 20.0 22.0 0.00 0.41 0.13 89 1010.3
20190323190708 39 300 19.0 22.0 0.00 0.41 0.13 89 1010.3
20190323190218 39 310 18.0 22.0 0.00 0.41 0.13 89 1010.3
20190323185707 39 301 18.0 22.0 0.00 0.41 0.13 89 1010.3
20190323185216 39 313 17.0 21.0 0.00 0.41 0.13 89 1010.3
20190323184710 39 304 17.0 22.0 0.00 0.41 0.13 89 1010.5
20190323184218 39 311 19.0 22.0 0.00 0.41 0.13 89 1010.4
20190323183707 39 311 18.0 22.0 0.00 0.41 0.13 89 1010.4
20190323183215 39 300 17.0 21.0 0.00 0.41 0.13 88 1010.4
20190323182704 40 319 17.0 20.0 0.00 0.41 0.13 89 1010.4
20190323182210 40 306 17.0 18.0 0.00 0.41 0.13 89 1010.3
20190323181718 40 321 17.0 18.0 0.00 0.41 0.13 90 1010.4
20190323181208 39 304 17.0 21.0 0.00 0.41 0.13 90 1010.4
20190323180716 39 301 18.0 21.0 0.00 0.41 0.13 90 1010.3
20190323180208 39 317 16.0 18.0 0.00 0.41 0.13 90 1010.3
20190323175717 39 313 16.0 20.0 0.00 0.41 0.13 91 1010.3
20190323175206 38 306 17.0 20.0 0.00 0.41 0.13 90 1010.3
20190323174714 38 306 17.0 18.0 0.00 0.41 0.13 90 1010.4
20190323174203 39 300 17.0 20.0 0.00 0.41 0.13 90 1010.3
20190323173711 39 306 17.0 20.0 0.00 0.41 0.13 89 1010.3
20190323173220 39 309 15.0 17.0 0.00 0.41 0.13 90 1010.3
20190323172709 39 313 16.0 17.0 0.00 0.41 0.13 90 1010.4
20190323172215 39 309 17.0 17.0 0.00 0.41 0.13 89 1010.4
20190323171710 39 338 16.0 17.0 0.00 0.41 0.13 90 1010.4
20190323171217 39 316 16.0 17.0 0.00 0.41 0.13 90 1010.5
20190323170706 39 314 16.0 17.0 0.00 0.41 0.13 90 1010.5
20190323170216 39 320 16.0 17.0 0.00 0.41 0.13 91 1010.4
20190323165704 39 317 16.0 17.0 0.00 0.41 0.13 91 1010.4
20190323165214 39 319 16.0 17.0 0.01 0.41 0.13 91 1010.3
20190323164721 39 327 14.0 17.0 0.01 0.41 0.13 91 1010.3
20190323164206 39 319 15.0 17.0 0.01 0.41 0.13 91 1010.3
20190323163715 39 323 16.0 17.0 0.01 0.41 0.13 92 1010.3
20190323163208 38 319 16.0 17.0 0.01 0.41 0.13 92 1010.3
20190323162717 38 308 15.0 17.0 0.01 0.41 0.13 92 1010.3
20190323162220 38 323 15.0 17.0 0.01 0.41 0.13 92 1010.3
20190323161708 38 302 15.0 17.0 0.01 0.41 0.13 92 1010.2
20190323161218 37 323 15.0 17.0 0.01 0.41 0.13 92 1010.1
20190323160707 37 309 15.0 17.0 0.01 0.41 0.13 93 1010.2
20190323160216 37 312 16.0 17.0 0.01 0.41 0.13 92 1010.2
20190323155705 36 313 14.0 17.0 0.01 0.41 0.13 93 1010.2
20190323155212 36 317 15.0 17.0 0.00 0.40 0.12 93 1010.3
20190323154706 36 316 13.0 16.0 0.00 0.40 0.12 92 1010.2
20190323154215 36 309 15.0 17.0 0.00 0.40 0.12 93 1010.3
20190323153704 36 307 14.0 17.0 0.00 0.40 0.12 93 1010.3
20190323153212 36 304 14.0 17.0 0.00 0.40 0.12 93 1010.3
20190323152720 36 318 13.0 17.0 0.00 0.40 0.12 93 1010.2
20190323152205 36 317 14.0 17.0 0.00 0.40 0.12 93 1010.2
20190323151714 35 323 13.0 17.0 0.00 0.40 0.12 93 1010.1
20190323151202 35 313 14.0 17.0 0.00 0.40 0.12 93 1010.1
20190323150712 35 317 15.0 17.0 0.00 0.40 0.12 93 1010.1
20190323150204 35 317 15.0 17.0 0.00 0.40 0.12 93 1010.1
20190323145713 35 319 14.0 17.0 0.00 0.40 0.12 93 1010.0
20190323145202 35 319 15.0 17.0 0.00 0.40 0.12 93 1010.0
20190323144711 35 321 15.0 17.0 0.00 0.40 0.12 93 1010.0
20190323144220 35 307 16.0 17.0 0.01 0.40 0.12 93 1010.0
20190323143708 35 319 16.0 17.0 0.01 0.40 0.12 93 1010.0
20190323143217 35 315 15.0 17.0 0.01 0.40 0.12 93 1009.9
20190323142706 35 309 15.0 17.0 0.01 0.40 0.12 93 1009.8
20190323142213 35 308 15.0 17.0 0.01 0.40 0.12 93 1009.7
20190323141705 35 319 15.0 17.0 0.01 0.40 0.12 93 1009.6
20190323141214 35 315 15.0 17.0 0.01 0.40 0.12 93 1009.5
20190323140704 35 325 15.0 17.0 0.01 0.40 0.12 93 1009.5
20190323140212 35 320 15.0 17.0 0.01 0.40 0.12 93 1009.4
20190323135721 35 329 16.0 17.0 0.01 0.40 0.12 93 1009.3
20190323135209 36 323 15.0 17.0 0.01 0.40 0.12 93 1009.3
20190323134717 36 325 12.0 15.0 0.01 0.40 0.12 93 1009.3
20190323134207 36 321 11.0 14.0 0.00 0.39 0.11 93 1009.2
20190323133715 37 322 12.0 15.0 0.00 0.39 0.11 93 1009.2
20190323133208 36 322 11.0 15.0 0.00 0.39 0.11 93 1009.2
20190323132716 36 311 9.0 13.0 0.00 0.39 0.11 93 1009.2
20190323132202 36 319 8.0 11.0 0.00 0.39 0.11 93 1009.1
20190323131712 36 332 8.0 10.0 0.00 0.39 0.11 93 1009.0
20190323131219 36 350 6.0 10.0 0.00 0.39 0.11 93 1008.9
20190323130709 36 342 6.0 9.0 0.00 0.39 0.11 93 1008.8
20190323130217 36 360 6.0 9.0 0.00 0.39 0.11 93 1008.7
20190323125706 36 11 5.0 9.0 0.00 0.39 0.11 93 1008.6
20190323125215 35 360 5.0 9.0 0.00 0.39 0.11 93 1008.6
20190323124708 35 346 5.0 9.0 0.00 0.39 0.11 93 1008.5
20190323124216 35 337 5.0 9.0 0.00 0.39 0.11 93 1008.5
20190323123705 34 34 5.0 10.0 0.00 0.39 0.11 93 1008.3
20190323123214 34 5 7.0 10.0 0.00 0.39 0.11 93 1008.2
20190323122703 34 355 5.0 10.0 0.00 0.39 0.11 93 1008.2
20190323122208 34 341 6.0 10.0 0.00 0.39 0.11 93 1008.0
20190323121717 34 9 5.0 9.0 0.00 0.39 0.11 93 1008.0
20190323121205 34 360 5.0 9.0 0.00 0.39 0.11 93 1007.9
20190323120714 34 10 6.0 9.0 0.00 0.39 0.11 92 1007.7
20190323120207 34 326 6.0 9.0 0.00 0.39 0.11 92 1007.7
20190323115716 34 330 5.0 6.0 0.00 0.39 0.11 92 1007.5
20190323115205 34 338 4.0 8.0 0.00 0.39 0.11 92 1007.5
20190323114714 34 325 5.0 9.0 0.00 0.39 0.11 92 1007.5
20190323114203 34 348 5.0 8.0 0.00 0.39 0.11 92 1007.5
20190323113711 34 5 5.0 9.0 0.00 0.39 0.11 92 1007.5
20190323113220 34 334 6.0 9.0 0.00 0.39 0.11 92 1007.4
20190323112710 34 330 4.0 8.0 0.00 0.39 0.11 92 1007.4
20190323112216 34 337 5.0 6.0 0.00 0.39 0.11 92 1007.4
20190323111709 34 340 4.0 9.0 0.00 0.39 0.11 92 1007.3
20190323111218 34 16 4.0 10.0 0.00 0.39 0.11 92 1007.2
20190323110707 34 355 7.0 10.0 0.00 0.39 0.11 92 1007.2
20190323110216 34 329 9.0 11.0 0.00 0.39 0.11 92 1007.2
20190323105704 35 322 8.0 11.0 0.00 0.39 0.11 92 1007.1
20190323105213 34 317 9.0 11.0 0.00 0.39 0.11 92 1007.2
20190323104702 34 327 9.0 12.0 0.00 0.39 0.11 92 1007.2
20190323104212 34 323 9.0 13.0 0.00 0.39 0.11 92 1007.2
20190323103720 35 304 11.0 14.0 0.00 0.39 0.11 92 1007.2
20190323103212 34 314 11.0 14.0 0.00 0.39 0.11 92 1007.2
20190323102721 35 308 10.0 13.0 0.00 0.39 0.11 92 1007.3
20190323102207 35 309 10.0 13.0 0.00 0.39 0.11 92 1007.4
20190323101716 35 294 9.0 11.0 0.00 0.39 0.11 92 1007.4
20190323101206 35 302 9.0 14.0 0.00 0.39 0.11 92 1007.4